| time (UTC) | temp F | wind direction | speed knots | gust knots | rain 1hr in | rain 24hr in | rain mn in | humidity % | barometer mb |
| 20260902091539 | 78 | 0 | 0.0 | 0.0 | 0.00 | 0.67 | 0.00 | 96 | 1015.0 |
| 20260902090041 | 79 | 0 | 0.0 | 0.0 | 0.00 | 0.67 | 0.00 | 96 | 1015.0 |
| 20260902084544 | 79 | 0 | 0.0 | 0.9 | 0.00 | 0.67 | 0.00 | 96 | 1014.9 |
| 20260902083043 | 79 | 0 | 0.0 | 3.5 | 0.00 | 0.67 | 0.00 | 96 | 1014.8 |
| 20260902081540 | 79 | 144 | 0.0 | 3.5 | 0.00 | 0.67 | 0.00 | 96 | 1014.7 |
| 20260902080045 | 79 | 188 | 0.9 | 2.6 | 0.00 | 0.67 | 0.00 | 97 | 1014.7 |
| 20260902074543 | 79 | 207 | 0.9 | 3.5 | 0.00 | 0.67 | 0.00 | 97 | 1015.0 |
| 20260902073049 | 79 | 0 | 0.0 | 1.7 | 0.00 | 0.67 | 0.00 | 97 | 1015.0 |
| 20260902071541 | 79 | 0 | 0.0 | 2.6 | 0.00 | 0.67 | 0.00 | 97 | 1015.2 |
| 20260902070047 | 79 | 0 | 0.0 | 0.9 | 0.00 | 0.67 | 0.00 | 97 | 1015.2 |
| 20260902064549 | 79 | 0 | 0.0 | 1.7 | 0.00 | 0.68 | 0.00 | 97 | 1015.1 |
| 20260902063049 | 79 | 0 | 0.0 | 1.7 | 0.00 | 0.68 | 0.00 | 96 | 1015.2 |
| 20260902061544 | 79 | 0 | 0.0 | 0.0 | 0.00 | 0.68 | 0.00 | 96 | 1015.1 |
| 20260902060049 | 79 | 0 | 0.0 | 0.0 | 0.00 | 0.68 | 0.00 | 96 | 1015.1 |
| 20260902054547 | 79 | 0 | 0.0 | 1.7 | 0.00 | 0.69 | 0.00 | 96 | 1015.3 |
| 20260902053047 | 79 | 111 | 0.0 | 1.7 | 0.00 | 0.69 | 0.00 | 95 | 1015.3 |
| 20260902051541 | 79 | 0 | 0.0 | 1.7 | 0.00 | 0.69 | 0.00 | 95 | 1015.2 |
| 20260902050055 | 80 | 0 | 0.0 | 2.6 | 0.00 | 0.69 | 0.00 | 95 | 1015.2 |
| 20260902044546 | 80 | 0 | 0.0 | 3.5 | 0.00 | 0.69 | 0.69 | 95 | 1015.1 |
| 20260902043045 | 80 | 161 | 0.0 | 3.5 | 0.00 | 0.69 | 0.69 | 95 | 1015.3 |
| 20260902041542 | 80 | 0 | 0.0 | 2.6 | 0.00 | 0.69 | 0.69 | 95 | 1015.3 |
| 20260902040039 | 80 | 168 | 0.0 | 3.5 | 0.00 | 0.69 | 0.69 | 95 | 1015.4 |
| 20260902034540 | 80 | 74 | 0.0 | 3.5 | 0.00 | 0.69 | 0.69 | 94 | 1015.4 |
| 20260902033047 | 80 | 151 | 0.0 | 3.5 | 0.00 | 0.69 | 0.69 | 94 | 1015.3 |
| 20260902031545 | 81 | 134 | 0.9 | 5.2 | 0.00 | 0.69 | 0.69 | 94 | 1015.1 |
| 20260902030039 | 80 | 103 | 0.9 | 7.0 | 0.00 | 0.69 | 0.69 | 94 | 1015.0 |
| 20260902024539 | 80 | 0 | 0.9 | 4.3 | 0.00 | 0.69 | 0.69 | 94 | 1014.9 |
| 20260902023051 | 80 | 0 | 0.9 | 3.5 | 0.00 | 0.69 | 0.69 | 94 | 1014.7 |
| 20260902021544 | 81 | 0 | 0.9 | 5.2 | 0.00 | 0.69 | 0.69 | 94 | 1014.6 |
| 20260902020040 | 81 | 174 | 0.0 | 2.6 | 0.00 | 0.69 | 0.69 | 93 | 1014.5 |
| 20260902014549 | 81 | 82 | 0.9 | 4.3 | 0.00 | 0.69 | 0.69 | 93 | 1014.3 |
| 20260902013047 | 81 | 0 | 0.9 | 5.2 | 0.00 | 0.69 | 0.69 | 93 | 1014.1 |
| 20260902011549 | 81 | 208 | 0.9 | 5.2 | 0.00 | 0.69 | 0.69 | 93 | 1014.1 |
| 20260902010040 | 81 | 0 | 0.0 | 3.5 | 0.00 | 0.69 | 0.69 | 92 | 1014.2 |
| 20260902004540 | 82 | 67 | 0.0 | 3.5 | 0.00 | 0.69 | 0.69 | 91 | 1014.4 |
| 20260902003047 | 82 | 153 | 0.0 | 4.3 | 0.00 | 0.69 | 0.69 | 91 | 1014.4 |
| 20260902001545 | 82 | 119 | 0.9 | 6.1 | 0.00 | 0.69 | 0.69 | 90 | 1014.4 |
| 20260902000048 | 83 | 185 | 0.0 | 3.5 | 0.00 | 0.69 | 0.69 | 90 | 1014.3 |
| 20260901234539 | 83 | 145 | 1.7 | 7.8 | 0.00 | 0.69 | 0.69 | 89 | 1014.2 |
| 20260901233046 | 83 | 0 | 1.7 | 8.7 | 0.00 | 0.69 | 0.69 | 88 | 1014.0 |
| 20260901231545 | 84 | 173 | 2.6 | 8.7 | 0.00 | 0.69 | 0.69 | 89 | 1014.1 |
| 20260901230044 | 84 | 125 | 2.6 | 7.0 | 0.00 | 0.69 | 0.69 | 89 | 1014.0 |
| 20260901224551 | 84 | 97 | 1.7 | 9.6 | 0.00 | 0.70 | 0.69 | 89 | 1013.8 |
| 20260901223038 | 84 | 151 | 2.6 | 9.6 | 0.00 | 0.70 | 0.69 | 89 | 1013.8 |
| 20260901221556 | 84 | 167 | 1.7 | 10.4 | 0.00 | 0.70 | 0.69 | 89 | 1013.7 |
| 20260901220045 | 84 | 137 | 1.7 | 8.7 | 0.00 | 0.70 | 0.69 | 88 | 1013.7 |
| 20260901214554 | 84 | 213 | 3.5 | 8.7 | 0.00 | 0.70 | 0.69 | 87 | 1013.8 |
| 20260901213035 | 84 | 181 | 2.6 | 8.7 | 0.00 | 0.70 | 0.69 | 87 | 1013.8 |
| 20260901211539 | 84 | 86 | 2.6 | 10.4 | 0.00 | 0.70 | 0.69 | 87 | 1014.0 |
| 20260901210042 | 84 | 169 | 2.6 | 11.3 | 0.00 | 0.70 | 0.69 | 88 | 1014.1 |
| 20260901204538 | 84 | 90 | 2.6 | 8.7 | 0.00 | 0.70 | 0.69 | 89 | 1014.4 |
| 20260901203035 | 84 | 69 | 3.5 | 10.4 | 0.00 | 0.70 | 0.69 | 87 | 1014.7 |
| 20260901201538 | 84 | 96 | 3.5 | 9.6 | 0.00 | 0.70 | 0.69 | 88 | 1014.8 |
| 20260901200038 | 84 | 206 | 3.5 | 11.3 | 0.00 | 0.70 | 0.69 | 86 | 1014.7 |
| 20260901194549 | 84 | 94 | 2.6 | 11.3 | 0.00 | 0.73 | 0.69 | 87 | 1014.5 |
| 20260901193040 | 84 | 172 | 3.5 | 9.6 | 0.00 | 0.73 | 0.69 | 88 | 1014.6 |
| 20260901191549 | 84 | 136 | 3.5 | 9.6 | 0.00 | 0.73 | 0.69 | 88 | 1015.0 |
| 20260901190047 | 84 | 67 | 3.5 | 8.7 | 0.00 | 0.73 | 0.69 | 88 | 1014.9 |
| 20260901184538 | 84 | 38 | 2.6 | 8.7 | 0.00 | 0.73 | 0.69 | 88 | 1015.1 |
| 20260901183102 | 84 | 42 | 2.6 | 7.8 | 0.00 | 0.73 | 0.69 | 88 | 1015.2 |
| 20260901181540 | 84 | 156 | 1.7 | 8.7 | 0.00 | 0.73 | 0.69 | 89 | 1014.8 |
| 20260901180038 | 83 | 184 | 2.6 | 12.2 | 0.00 | 0.73 | 0.69 | 91 | 1014.9 |
| 20260901174541 | 82 | 136 | 2.6 | 11.3 | 0.00 | 0.73 | 0.69 | 92 | 1014.9 |
| 20260901173041 | 82 | 90 | 1.7 | 8.7 | 0.00 | 0.73 | 0.69 | 94 | 1015.0 |
| 20260901171538 | 81 | 42 | 2.6 | 8.7 | 0.00 | 0.73 | 0.69 | 96 | 1015.3 |
| 20260901170045 | 80 | 144 | 2.6 | 7.8 | 0.00 | 0.73 | 0.69 | 97 | 1015.1 |
| 20260901164541 | 79 | 202 | 2.6 | 7.0 | 0.00 | 0.73 | 0.69 | 97 | 1015.4 |
| 20260901163051 | 79 | 65 | 3.5 | 9.6 | 0.00 | 0.73 | 0.69 | 98 | 1015.4 |
| 20260901161538 | 79 | 124 | 2.6 | 7.8 | 0.00 | 0.73 | 0.69 | 98 | 1015.4 |
| 20260901160040 | 78 | 38 | 2.6 | 7.8 | 0.01 | 0.73 | 0.69 | 98 | 1015.5 |
| 20260901154602 | 77 | 90 | 1.7 | 4.3 | 0.21 | 0.73 | 0.69 | 98 | 1015.5 |
| 20260901153046 | 77 | 97 | 2.6 | 8.7 | 0.23 | 0.73 | 0.69 | 98 | 1015.5 |
| 20260901151539 | 78 | 64 | 3.5 | 9.6 | 0.23 | 0.73 | 0.69 | 98 | 1015.3 |
| 20260901150054 | 78 | 63 | 4.3 | 11.3 | 0.22 | 0.72 | 0.68 | 98 | 1015.1 |
| 20260901144544 | 78 | 35 | 3.5 | 7.8 | 0.02 | 0.52 | 0.48 | 98 | 1015.3 |
| 20260901143045 | 78 | 32 | 3.5 | 9.6 | 0.01 | 0.50 | 0.46 | 99 | 1015.1 |
| 20260901141548 | 77 | 336 | 3.5 | 8.7 | 0.02 | 0.50 | 0.46 | 98 | 1015.2 |
| 20260901140048 | 77 | 64 | 2.6 | 7.8 | 0.03 | 0.50 | 0.46 | 99 | 1015.0 |
| 20260901134545 | 77 | 121 | 4.3 | 8.7 | 0.03 | 0.50 | 0.46 | 98 | 1014.9 |
| 20260901133041 | 77 | 117 | 1.7 | 6.1 | 0.02 | 0.49 | 0.45 | 98 | 1014.9 |
| 20260901131547 | 77 | 66 | 1.7 | 7.8 | 0.02 | 0.48 | 0.44 | 98 | 1014.7 |
| 20260901130043 | 77 | 59 | 3.5 | 13.9 | 0.02 | 0.47 | 0.43 | 98 | 1014.7 |
| 20260901124550 | 77 | 97 | 3.5 | 8.7 | 0.02 | 0.47 | 0.43 | 98 | 1014.4 |
| 20260901123049 | 76 | 84 | 2.6 | 8.7 | 0.11 | 0.46 | 0.42 | 98 | 1014.2 |
| 20260901121544 | 76 | 46 | 2.6 | 7.8 | 0.20 | 0.46 | 0.42 | 98 | 1013.9 |
| 20260901120107 | 76 | 360 | 4.3 | 7.8 | 0.24 | 0.45 | 0.41 | 98 | 1013.9 |
| 20260901114538 | 76 | 81 | 0.9 | 6.1 | 0.27 | 0.45 | 0.41 | 98 | 1013.9 |
| 20260901113051 | 75 | 45 | 3.5 | 7.0 | 0.18 | 0.34 | 0.30 | 98 | 1013.8 |
| 20260901111543 | 75 | 50 | 2.6 | 7.0 | 0.13 | 0.26 | 0.22 | 97 | 1013.8 |
| 20260901110048 | 75 | 65 | 2.6 | 8.7 | 0.10 | 0.21 | 0.17 | 97 | 1013.7 |
| 20260901104539 | 76 | 67 | 2.6 | 8.7 | 0.09 | 0.18 | 0.14 | 97 | 1013.5 |
| 20260901103049 | 76 | 69 | 2.6 | 7.8 | 0.08 | 0.16 | 0.12 | 97 | 1013.4 |
| 20260901101538 | 76 | 42 | 2.6 | 9.6 | 0.05 | 0.13 | 0.09 | 97 | 1013.8 |
| 20260901100039 | 76 | 34 | 4.3 | 10.4 | 0.05 | 0.11 | 0.07 | 96 | 1013.6 |
| 20260901094539 | 77 | 51 | 1.7 | 8.7 | 0.03 | 0.09 | 0.05 | 96 | 1013.7 |
| 20260901093040 | 77 | 46 | 2.6 | 9.6 | 0.02 | 0.08 | 0.04 | 95 | 1013.8 |